DAL1454 KTPA-KDFW

Flight info

Callsign DAL1454
Flight time N/A
Altitude 38000
Route DORMR3 FROOT ROZZI Y280 REDFN Q105 HRV J58 AEX PNUTS BEREE3
Aircraft A35K/H-SDE2E3GHIJ3J4J5LM1ORWXY/LB1D1

Departure

Time 2026-05-04 13:28
Airport Tampa International Airport (KTPA)

Arrival

Time N/A
Airport Dallas Fort Worth International Airport (KDFW)
Time Latitude Longitude Altitude Speed Heading
2026-05-04 13:02 27.98116 -82.53803 27 ft 0 kts 205°
2026-05-04 13:18 27.98120 -82.53800 28 ft 1 kts 184°
2026-05-04 13:18 27.98134 -82.53801 28 ft 2 kts 171°
2026-05-04 13:18 27.98149 -82.53804 28 ft 2 kts 174°
2026-05-04 13:19 27.98163 -82.53805 28 ft 1 kts 178°
2026-05-04 13:19 27.98170 -82.53804 28 ft 1 kts 220°
2026-05-04 13:19 27.98176 -82.53790 28 ft 1 kts 289°
2026-05-04 13:19 27.98173 -82.53783 28 ft 0 kts 294°
2026-05-04 13:21 27.98175 -82.53788 28 ft 2 kts 292°
2026-05-04 13:22 27.98185 -82.53816 28 ft 5 kts 289°
2026-05-04 13:22 27.98196 -82.53870 27 ft 8 kts 276°
2026-05-04 13:22 27.98187 -82.53944 27 ft 10 kts 225°
2026-05-04 13:22 27.98103 -82.53968 27 ft 14 kts 180°
2026-05-04 13:23 27.98024 -82.54028 26 ft 15 kts 232°
2026-05-04 13:23 27.97916 -82.54058 25 ft 17 kts 180°
2026-05-04 13:23 27.97782 -82.54063 25 ft 20 kts 183°
2026-05-04 13:23 27.97627 -82.54063 24 ft 23 kts 179°
2026-05-04 13:24 27.97453 -82.54074 23 ft 26 kts 181°
2026-05-04 13:24 27.97261 -82.54078 21 ft 29 kts 182°
2026-05-04 13:24 27.97047 -82.54085 20 ft 31 kts 182°
2026-05-04 13:25 27.96573 -82.54102 19 ft 33 kts 181°
2026-05-04 13:25 27.96414 -82.54105 18 ft 11 kts 181°
2026-05-04 13:25 27.96367 -82.54120 18 ft 0 kts 216°
2026-05-04 13:26 27.96365 -82.54121 18 ft 1 kts 219°
2026-05-04 13:26 27.96352 -82.54160 18 ft 8 kts 264°
2026-05-04 13:26 27.96366 -82.54227 18 ft 8 kts 320°
2026-05-04 13:27 27.96431 -82.54233 18 ft 10 kts 360°
2026-05-04 13:27 27.96569 -82.54227 19 ft 51 kts
2026-05-04 13:27 27.97279 -82.54206 22 ft 150 kts
2026-05-04 13:27 27.98535 -82.54179 417 ft 199 kts
2026-05-04 13:28 27.99969 -82.54216 1192 ft 212 kts
2026-05-04 13:28 28.01497 -82.54249 1669 ft 232 kts 359°
2026-05-04 13:28 28.03118 -82.54775 1814 ft 254 kts 327°
2026-05-04 13:28 28.04224 -82.56426 2003 ft 285 kts 291°
2026-05-04 13:29 28.04415 -82.57343 2079 ft 298 kts 277°